Lapse_Rate
6.7 6.8 6.7 6.5 6.4 6.3 6.0 5.6 5.4 5.2 5.2 5.0 4.8 4.7 4.7 4.6 4.7 4.5 4.4 4.3 4.2 4.7 4.7 4.8 4.8 5.2 5.5 6.2 6.2 6.1 6.0 6.0 6.0
6.7 6.6 6.5 6.4 6.2 6.2 5.9 5.5 5.4 5.2 5.1 4.8 4.8 4.6 4.6 4.5 4.5 4.3 4.2 4.3 4.3 4.6 4.8 5.0 4.6 5.0 5.4 6.0 6.0 5.9 6.0 6.1 6.2
6.4 6.4 6.4 6.3 6.3 6.1 5.8 5.6 5.4 5.3 5.0 4.8 4.7 4.6 4.5 4.4 4.4 4.3 4.3 4.2 4.3 4.5 4.8 5.2 5.0 4.9 5.1 5.6 5.7 5.8 5.9 5.9 6.1
6.4 6.3 6.2 6.2 6.1 5.9 5.8 5.7 5.5 5.2 5.0 4.8 4.6 4.5 4.4 4.3 4.4 4.3 4.4 4.5 4.5 4.6 4.9 5.0 5.2 5.1 5.0 5.1 5.5 5.7 5.8 5.9 5.9
6.1 6.2 6.2 6.2 6.1 6.0 5.9 5.6 5.3 5.1 4.8 4.6 4.4 4.3 4.2 4.2 4.2 4.2 4.2 4.5 4.8 4.8 5.0 5.1 4.9 5.2 5.2 5.1 5.2 5.3 5.5 5.7 5.7
6.1 6.2 6.1 6.1 6.0 5.9 5.6 5.4 5.2 4.9 4.8 4.6 4.4 4.3 4.2 4.3 4.2 4.3 4.4 4.6 4.7 5.0 5.2 5.3 5.3 5.1 5.4 5.5 5.4 5.2 5.3 5.5 5.8
6.2 6.0 6.1 6.1 5.9 5.7 5.6 5.4 5.1 4.8 4.6 4.4 4.2 4.2 4.2 4.2 4.2 4.5 4.6 4.9 5.1 5.1 5.3 5.5 5.5 5.4 5.6 5.5 5.6 5.5 5.5 5.3 5.5
6.0 6.1 6.1 6.1 6.0 5.8 5.6 5.3 5.1 4.9 4.6 4.5 4.3 4.2 4.1 4.1 4.2 4.5 4.7 5.0 5.1 5.3 5.5 5.5 5.6 5.7 5.8 5.8 5.6 5.6 5.6 5.5 5.5
5.9 5.9 5.9 5.9 5.8 5.8 5.5 5.3 5.1 4.9 4.7 4.5 4.4 4.3 4.2 4.4 4.4 4.5 4.6 4.9 5.1 5.4 5.6 5.6 5.7 5.7 5.9 5.9 5.8 5.7 5.7 5.7 5.7
5.8 5.9 5.9 5.7 5.6 5.5 5.3 5.1 5.0 4.8 4.7 4.6 4.5 4.4 4.4 4.4 4.6 4.7 4.7 5.0 5.2 5.5 5.6 5.9 5.9 5.8 5.9 5.8 5.8 5.8 5.8 5.7 5.7
5.7 5.9 5.8 5.7 5.8 5.6 5.3 5.1 5.0 4.9 4.8 4.6 4.6 4.5 4.4 4.4 4.4 4.4 4.7 4.9 5.1 5.3 5.6 5.9 6.0 5.9 5.8 5.8 5.7 5.7 5.8 5.8 5.8
5.6 5.7 5.6 5.4 5.5 5.4 5.2 5.1 5.0 4.9 4.8 4.8 4.7 4.7 4.6 4.6 4.6 4.6 4.7 4.9 5.0 5.2 5.5 5.8 5.9 5.9 5.9 5.8 5.7 5.7 5.8 5.9 5.8
5.2 5.3 5.1 5.1 5.2 5.3 5.1 4.9 4.9 4.9 4.8 4.7 4.6 4.6 4.6 4.7 4.6 4.7 4.7 4.8 4.9 5.2 5.5 5.7 5.8 6.0 6.2 6.1 6.0 6.0 6.0 5.9 5.9
5.2 5.2 5.2 5.2 5.2 5.2 5.2 5.1 5.0 4.9 4.9 4.8 4.7 4.8 4.7 4.9 4.9 4.9 4.8 4.9 4.9 5.2 5.5 5.8 5.9 6.0 6.2 6.4 6.5 6.4 6.4 6.3 6.3
4.7 4.9 5.1 5.1 5.3 5.4 5.4 5.4 5.3 5.3 5.2 5.1 5.1 5.1 5.0 5.0 5.0 5.0 5.0 5.0 5.0 5.3 5.6 5.7 6.1 6.4 6.3 6.4 6.5 6.5 6.5 6.6 6.6
4.7 5.2 5.4 5.3 5.2 5.3 5.5 5.5 5.6 5.5 5.4 5.2 5.3 5.3 5.3 5.2 5.2 5.2 5.2 5.3 5.3 5.4 5.7 5.9 6.2 6.4 6.7 6.7 6.7 6.7 6.7 6.8 6.7
4.9 5.2 5.4 5.4 5.5 5.6 5.6 5.5 5.5 5.6 5.6 5.4 5.4 5.6 5.6 5.7 5.5 5.6 5.6 5.5 5.6 5.9 6.1 6.2 6.4 6.5 6.7 7.0 6.9 6.8 6.8 6.8 6.8
5.0 5.2 5.4 5.5 5.5 5.7 5.7 5.6 5.6 5.6 5.7 5.8 5.6 5.7 5.8 5.8 5.9 5.9 6.1 6.0 6.2 6.6 6.9 6.8 7.2 6.7 6.8 7.0 6.9 6.9 6.8 6.8 6.6
5.1 5.1 5.3 5.5 5.6 5.7 5.8 5.8 5.8 5.7 5.8 5.6 5.9 5.9 5.8 5.5 5.5 5.9 6.3 6.7 6.4 6.6 7.2 6.9 7.1 7.1 7.0 7.0 6.9 6.9 6.9 6.7 6.6
5.3 5.4 5.5 5.6 5.8 5.9 5.8 5.7 5.6 5.7 5.7 5.9 5.7 5.9 6.1 6.2 6.1 6.1 6.3 6.2 6.5 6.6 6.8 6.8 7.2 7.0 7.1 7.0 6.8 6.6 6.7 6.6 6.5
Wind_Speed
4 3 3 4 3 3 2 2 1 3 2 1 4 2 3 8 5 8 4 11 7 9 10 10 9 9 8 9 9 10 9 9 10
4 4 3 5 4 3 3 3 2 2 2 1 3 2 5 10 4 5 7 9 6 7 8 7 6 6 7 9 8 8 9 8 8
3 3 4 5 3 2 2 3 4 3 2 2 2 1 6 7 2 3 8 6 5 5 5 6 4 4 5 8 7 7 7 6 6
3 1 4 5 3 2 2 3 4 4 4 2 2 1 6 11 1 4 9 5 3 3 3 3 2 3 4 5 5 4 4 3 4
5 4 6 4 2 2 2 3 4 5 3 5 5 3 6 12 4 4 8 3 3 1 1 1 2 2 3 4 3 3 3 4 4
10 8 6 3 3 3 3 3 3 3 5 7 7 6 10 7 5 4 7 3 4 3 2 2 3 4 4 5 5 6 6 5 5
3 7 6 5 5 5 5 4 4 5 9 9 8 8 10 7 6 5 8 3 7 6 6 5 6 6 7 8 7 8 8 9 9
8 8 8 10 10 9 9 9 9 9 7 7 8 9 8 7 8 6 8 7 7 9 9 9 9 10 10 10 10 11 10 11 11
7 7 7 8 8 9 8 8 9 8 10 10 10 10 9 8 7 9 12 11 12 11 11 12 12 13 13 14 13 13 13 13 14
7 7 8 8 10 8 7 8 7 8 10 11 10 8 10 10 9 9 13 13 15 16 16 15 16 16 17 17 16 17 16 16 16
7 8 7 8 11 11 10 7 7 7 8 9 10 10 11 12 12 11 11 18 15 18 19 19 19 20 20 20 20 19 19 19 20
9 8 7 8 12 13 11 8 8 7 7 10 9 8 12 11 12 13 13 12 21 20 21 22 22 22 22 23 22 22 21 21 21
11 8 8 11 11 8 7 8 8 8 8 8 8 8 8 10 12 13 14 13 13 17 23 23 25 25 24 25 25 25 23 22 23
12 10 9 13 7 8 8 8 8 7 7 8 8 8 8 10 9 11 13 14 15 14 15 24 24 24 25 27 27 26 26 25 24
12 10 11 9 9 9 9 10 8 9 8 9 9 9 9 10 10 11 10 14 17 17 16 15 15 24 26 26 27 28 28 26 24
14 11 13 12 11 12 12 11 12 9 9 8 8 8 10 12 11 10 10 12 11 15 15 13 14 14 22 25 25 26 25 26 25
14 15 13 14 11 14 14 13 10 10 9 9 7 7 8 11 12 10 9 12 9 9 10 14 13 12 11 12 20 21 21 20 21
16 16 14 13 12 11 13 13 14 10 10 13 8 4 7 4 3 5 5 8 7 7 7 8 12 12 12 13 14 19 19 19 17
16 17 16 15 11 14 13 11 13 12 11 8 12 15 10 5 5 4 7 8 8 7 6 7 8 11 11 13 14 12 12 14 16
15 16 15 15 12 14 14 13 13 12 11 12 7 12 11 13 11 10 10 7 7 7 8 8 7 8 11 10 12 16 15 15 15
Wind_Direction
118 135 151 137 148 128 130 149 163 102 90 167 108 77 313 289 85 108 83 72 78 81 66 60 57 64 63 63 60 61 55 51 40
140 172 175 164 158 155 174 194 191 135 114 164 120 60 309 296 116 96 91 83 91 70 70 54 52 44 50 62 58 63 59 52 48
133 160 174 162 165 175 192 198 201 183 171 184 132 42 303 280 126 105 87 105 87 70 68 75 40 37 36 57 58 53 50 48 51
121 61 163 149 153 178 205 211 204 205 200 203 189 235 299 294 80 178 146 131 111 77 64 69 60 29 12 23 47 44 33 19 21
179 148 140 144 153 189 212 204 195 198 212 236 223 212 273 263 189 213 92 129 142 145 103 22 359 334 329 331 330 344 341 332 344
177 123 125 148 181 197 212 205 208 218 232 236 229 215 239 230 223 208 121 200 205 206 254 276 278 288 292 289 294 300 294 296 303
210 137 153 195 196 202 210 221 232 236 238 196 196 228 231 238 222 210 142 221 224 231 245 257 268 270 271 280 282 282 283 284 283
217 223 209 224 206 221 201 204 220 224 243 239 221 225 231 238 233 219 170 218 246 242 243 254 260 265 268 265 271 277 278 281 282
228 225 223 225 214 231 218 227 221 217 234 242 233 232 235 224 244 240 193 218 241 251 253 255 259 261 262 265 267 262 265 267 270
220 228 225 223 232 233 225 231 236 226 235 231 237 244 244 242 237 244 207 215 234 245 250 255 259 261 260 259 260 264 265 266 269
224 222 224 222 224 222 228 234 232 239 237 242 233 233 238 242 246 246 235 216 225 242 248 253 256 260 263 264 265 264 266 269 269
223 225 224 225 231 229 231 233 244 248 246 241 243 242 241 237 230 241 245 232 217 227 243 249 253 256 259 261 262 264 264 264 267
224 226 227 229 228 232 230 231 233 234 238 239 235 241 242 251 250 242 238 236 244 226 229 239 248 252 255 259 262 263 263 263 261
220 224 224 226 228 231 230 233 235 241 238 245 248 249 247 241 244 247 251 243 234 237 239 227 235 241 251 256 257 260 262 261 263
222 225 225 222 223 224 225 228 233 237 242 247 244 240 244 250 248 252 247 241 243 238 232 241 241 233 244 250 255 255 257 260 261
218 221 226 223 220 224 225 227 228 233 231 247 259 264 259 254 251 245 244 247 246 241 234 235 240 245 232 236 244 250 254 258 263
223 222 224 223 223 224 226 227 228 231 228 237 243 259 259 246 246 238 243 243 242 244 237 236 234 233 238 227 229 238 246 253 258
228 226 225 224 227 226 224 225 223 230 227 225 220 225 238 260 233 232 240 241 236 230 230 226 229 234 231 227 233 232 238 248 257
230 231 226 226 225 228 226 222 226 223 230 224 224 232 262 277 272 197 218 226 230 241 231 228 238 222 231 232 230 232 220 235 249
234 234 230 229 229 231 226 226 226 228 225 231 217 227 234 243 251 260 251 240 232 232 233 245 251 229 216 217 219 230 230 236 242